Location: Newark
(40.4455°N, 118.4031°W)
Time: 04:29:17
(UTC+00:00)

LightSail 2 - Visible Passes

Search period start: 13 November 2019 00:00
Search period end: 23 November 2019 00:00
Orbit: 701 x 726 km, 24.0° (Epoch: 11 November)

Date Brightness Start Highest point End Pass type
(mag) Time Alt. Az. Time Alt. Az. Time Alt. Az.
13 Nov 7.5 13:19:12 10° SSW 13:21:11 12° S 13:23:11 10° SSE visible
14 Nov 7.4 12:22:59 12° S 12:23:33 12° S 12:25:39 10° SSE visible
15 Nov 7.6 13:09:29 10° SSW 13:10:32 11° S 13:11:35 10° S visible
16 Nov 7.6 12:13:27 11° S 12:13:27 11° S 12:14:37 10° SSE visible
